STARLINK-30059

decayed
NORAD ID: 55714 Int'l Des: 2023-026 Owner: SPXS Country: US Constellation: starlink
LEOCIRCULAR

关于 STARLINK-30059

正在加载描述...

高度历史

Altitude vs Time

uPlot chart will show altitude changes over time

两行轨道根数

1 55714U 23026V 23266.96974204 .06887139 88439-5 36322-2 0 9992
2 55714 42.9897 109.1961 0016510 261.7703 98.1309 16.18774564 33745
Epoch: Sep 23, 2023 • Age: 17428 hours

当前状态

Position data unavailable
发射日期 Feb 27, 2023
运行时间 2.5 years
衰减日期 Sep 23, 2023
类型 internet

技术详情

分类 Payload
质量 730.00 kg
干质量 700.00 kg
总质量 730.00 kg
长度 0.30 m
直径 4.10 m
跨度 29.00 m
形状 Box + pan
制造商 SPXS
平台类型 Starlink V2M
阶段状态 Unknown Transfer Status
所有者/国家 SPXS/US

大型星座

Loading constellations...